CW8630 Weather Reports


time (UTC)temp
F
wind
direction
speed
knots
gust
knots
rain 1hr
in
rain 24hr
in
rain mn
in
humidity
%
barometer
mb
20260506091729 40 318 1.7 3.5 0.00 0.00 0.00 71 1011.3
20260506091228 40 310 1.7 3.5 0.00 0.00 0.00 71 1011.3
20260506090228 40 331 1.7 2.6 0.00 0.00 0.00 70 1011.6
20260506085728 41 300 1.7 2.6 0.00 0.00 0.00 70 1011.5
20260506085229 41 1 1.7 3.5 0.00 0.00 0.00 70 1011.3
20260506084728 41 310 2.6 4.3 0.00 0.00 0.00 69 1011.6
20260506083227 41 305 2.6 4.3 0.00 0.00 0.00 69 1011.5
20260506082729 41 314 2.6 3.5 0.00 0.00 0.00 68 1011.6
20260506081729 41 314 1.7 3.5 0.00 0.00 0.00 67 1011.3
20260506081226 42 327 1.7 2.6 0.00 0.00 0.00 66 1011.3
20260506080729 42 318 1.7 2.6 0.00 0.00 0.00 66 1011.3
20260506080228 42 340 0.9 1.7 0.00 0.00 0.00 64 1011.1
20260506073226 43 8 0.9 1.7 0.00 0.00 0.00 62 1010.7
20260506072726 43 20 0.9 1.7 0.00 0.00 0.00 62 1010.8
20260506072228 43 23 0.9 3.5 0.00 0.00 0.00 62 1010.9
20260506071729 44 13 1.7 4.3 0.00 0.00 0.00 62 1010.9
20260506071227 44 340 1.7 4.3 0.00 0.00 0.00 62 1011.0
20260506070726 44 9 1.7 4.3 0.00 0.00 0.00 61 1010.8
20260506070227 44 20 1.7 4.3 0.00 0.00 0.00 61 1010.8
20260506062220 46 32 3.5 6.1 0.00 0.00 0.00 58 1010.7
20260506060703 46 1 3.5 7.8 0.00 0.00 0.00 57 1010.9
20260506060156 46 1 3.5 7.8 0.00 0.00 0.00 56 1010.9
20260506051057 48 324 2.6 6.1 0.00 0.00 0.00 54 1010.4
20260506050558 48 39 2.6 4.3 0.00 0.00 0.00 54 1010.4
20260506045059 49 314 2.6 6.1 0.00 0.00 0.00 53 1010.4
20260506044557 49 344 2.6 6.1 0.00 0.00 0.00 53 1010.3
20260506044059 49 11 2.6 6.1 0.00 0.00 0.00 53 1010.2
20260506043557 49 321 2.6 4.3 0.00 0.00 0.00 53 1010.3
20260506043058 49 1 1.7 5.2 0.00 0.00 0.00 52 1010.3
20260506042559 49 334 1.7 5.2 0.00 0.00 0.00 52 1010.3
20260506042057 49 40 1.7 5.2 0.00 0.00 0.00 52 1010.5
20260506041557 50 338 2.6 7.0 0.00 0.00 0.00 52 1010.5
20260506040553 50 1 2.6 7.0 0.00 0.00 0.00 52 1010.5
20260506040056 50 348 2.6 7.0 0.00 0.00 0.00 51 1010.5
20260506035555 50 342 2.6 6.1 0.00 0.00 0.00 51 1010.4
20260506035054 50 318 3.5 7.0 0.00 0.00 0.00 51 1010.4
20260506034553 50 356 3.5 7.0 0.00 0.00 0.00 51 1010.3
20260506034055 50 340 2.6 6.1 0.00 0.00 0.00 52 1010.3
20260506033553 50 20 2.6 6.1 0.00 0.00 0.00 51 1010.3
20260506033053 50 1 2.6 7.0 0.00 0.00 0.00 51 1010.4
20260506032554 50 334 2.6 7.0 0.00 0.00 0.00 51 1010.4
20260506031548 50 334 2.6 7.0 0.00 0.00 0.00 52 1010.1
20260506031050 50 348 2.6 6.1 0.00 0.00 0.00 52 1010.0
20260506030547 50 330 2.6 5.2 0.00 0.00 0.00 52 1009.9
20260506030048 50 330 2.6 5.2 0.00 0.00 0.00 52 1009.8
20260506025548 50 1 1.7 5.2 0.00 0.00 0.00 53 1009.8
20260506025047 51 46 1.7 3.5 0.00 0.00 0.00 54 1009.7
20260506024046 51 336 1.7 3.5 0.00 0.00 0.00 53 1009.4
20260506023543 51 319 1.7 3.5 0.00 0.00 0.00 53 1009.5
20260506023044 51 318 1.7 3.5 0.00 0.00 0.00 53 1009.6
20260506022542 51 327 1.7 3.5 0.00 0.00 0.00 53 1009.6
20260506022043 51 305 1.7 4.3 0.00 0.00 0.00 52 1009.5
20260506021041 51 292 2.6 5.2 0.00 0.00 0.00 52 1009.3
20260506020541 51 296 1.7 4.3 0.00 0.00 0.00 52 1009.3
20260506020035 52 305 1.7 3.5 0.00 0.00 0.00 52 1009.3
20260506015530 52 310 1.7 3.5 0.00 0.00 0.00 51 1009.0
20260506015024 52 317 1.7 4.3 0.00 0.00 0.00 51 1009.0
20260506014518 52 303 1.7 5.2 0.00 0.00 0.00 50 1009.0
20260506012959 52 314 1.7 3.5 0.00 0.00 0.00 49 1008.8
20260506012455 53 303 1.7 3.5 0.00 0.00 0.00 48 1008.4
20260506011947 53 324 1.7 3.5 0.00 0.00 0.00 48 1008.5
20260506010429 53 314 1.7 4.3 0.00 0.00 0.00 47 1008.3
20260506005925 53 296 2.6 5.2 0.00 0.00 0.00 46 1008.6
20260506005417 53 325 2.6 6.1 0.00 0.00 0.00 46 1008.2
20260506004913 53 1 2.6 7.0 0.00 0.00 0.00 46 1008.3
20260506004406 53 1 2.6 7.0 0.00 0.00 0.00 45 1008.2
20260506003355 53 354 1.7 6.1 0.00 0.00 0.00 47 1008.0
20260506002848 54 350 2.6 6.1 0.00 0.00 0.00 47 1008.0
20260506001836 54 315 4.3 9.6 0.00 0.00 0.00 44 1007.9
20260506001329 54 296 3.5 9.6 0.00 0.00 0.00 45 1007.9
20260506000823 54 291 3.5 10.4 0.00 0.00 0.00 45 1007.9
20260506000317 54 310 3.5 10.4 0.00 0.00 0.00 45 1008.0
20260505235818 54 287 3.5 9.6 0.00 0.00 0.00 45 1008.0
20260505235316 54 315 4.3 9.6 0.00 0.00 0.00 45 1008.0
20260505234816 54 277 4.3 11.3 0.00 0.00 0.00 44 1008.1
20260505234316 55 331 5.2 11.3 0.00 0.00 0.00 43 1008.1
20260505232816 55 28 4.3 10.4 0.00 0.00 0.00 42 1008.0
20260505231817 55 311 4.3 13.9 0.00 0.00 0.00 44 1008.1
20260505230816 55 331 4.3 11.3 0.00 0.00 0.00 44 1008.2
20260505230317 55 343 4.3 10.4 0.00 0.00 0.00 44 1008.2
20260505225817 54 333 5.2 12.2 0.00 0.00 0.00 43 1008.3
20260505225316 54 344 4.3 12.2 0.00 0.00 0.00 42 1008.3
20260505224817 54 323 3.5 10.4 0.00 0.00 0.00 43 1008.2
20260505224318 55 32 5.2 11.3 0.00 0.00 0.00 42 1008.3
20260505223811 55 298 5.2 14.8 0.00 0.00 0.00 42 1008.4
20260505223306 55 254 5.2 14.8 0.00 0.00 0.00 41 1008.5
20260505222759 55 21 4.3 11.3 0.00 0.00 0.00 43 1008.4
20260505222254 55 347 4.3 11.3 0.00 0.00 0.00 43 1008.4
20260505221748 55 269 5.2 11.3 0.00 0.00 0.00 42 1008.4
20260505221249 55 314 6.1 13.0 0.00 0.00 0.00 41 1008.3
20260505220250 55 260 5.2 13.9 0.00 0.00 0.00 42 1008.4
20260505215748 55 316 5.2 11.3 0.00 0.00 0.00 43 1008.3
20260505214748 55 282 5.2 12.2 0.00 0.00 0.00 40 1008.4
20260505214249 55 316 5.2 13.0 0.00 0.00 0.00 41 1008.5
20260505213249 55 304 4.3 13.0 0.00 0.00 0.00 41 1008.6
20260505212247 55 319 6.1 13.9 0.00 0.00 0.00 41 1008.6
20260505211746 55 0 5.2 11.3 0.00 0.00 0.00 40 1008.5
20260505211246 55 298 6.1 14.8 0.00 0.00 0.00 40 1008.5
20260505210746 55 33 6.1 14.8 0.00 0.00 0.00 39 1008.4
20260505210246 55 330 6.1 13.0 0.00 0.00 0.00 41 1008.5
20260505205746 55 315 5.2 13.0 0.00 0.00 0.00 43 1008.5
20260505205246 55 291 4.3 12.2 0.00 0.00 0.00 40 1008.5
20260505204246 55 252 5.2 15.6 0.00 0.00 0.00 41 1008.6
20260505203236 55 301 5.2 10.4 0.00 0.00 0.00 40 1008.6
20260505202728 55 325 6.1 15.6 0.00 0.00 0.00 41 1008.7
20260505202222 55 261 7.0 15.6 0.00 0.00 0.00 40 1008.7
20260505201717 55 290 6.1 15.6 0.00 0.00 0.00 40 1008.7
20260505200705 55 302 6.1 14.8 0.00 0.00 0.00 39 1008.9
20260505200158 55 279 6.1 13.9 0.00 0.00 0.00 40 1008.9
20260505195653 55 303 7.0 13.9 0.00 0.00 0.00 39 1009.0
20260505195146 55 311 6.1 15.6 0.00 0.00 0.00 39 1008.9
20260505194136 55 309 7.0 18.2 0.00 0.00 0.00 38 1009.1
20260505193629 55 280 7.8 18.2 0.00 0.00 0.00 38 1009.0
20260505193123 55 275 7.0 15.6 0.00 0.00 0.00 38 1009.1
20260505192617 55 306 5.2 12.2 0.00 0.00 0.00 39 1008.9
20260505192110 55 340 5.2 12.2 0.00 0.00 0.00 36 1009.0
20260505191605 55 309 5.2 11.3 0.00 0.00 0.00 36 1008.9
20260505191059 55 348 7.0 17.4 0.00 0.00 0.00 36 1008.9
20260505190048 56 238 6.1 16.5 0.00 0.00 0.00 35 1009.2
20260505185540 56 335 5.2 14.8 0.00 0.00 0.00 36 1009.3
20260505185034 56 307 6.1 14.8 0.00 0.00 0.00 37 1009.1
20260505184528 56 25 7.0 14.8 0.00 0.00 0.00 38 1009.2
20260505184022 56 354 5.2 13.9 0.00 0.00 0.00 39 1009.0
20260505183517 55 288 5.2 13.9 0.00 0.00 0.00 39 1009.1
20260505182504 55 294 7.0 15.6 0.00 0.00 0.00 36 1009.0
20260505181453 56 310 6.1 13.0 0.00 0.00 0.00 37 1009.1
20260505180947 56 32 5.2 13.0 0.00 0.00 0.00 38 1008.8
20260505180442 56 35 5.2 16.5 0.00 0.00 0.00 39 1008.8
20260505175935 56 308 7.0 16.5 0.00 0.00 0.00 37 1008.7
20260505174923 56 247 6.1 14.8 0.00 0.00 0.00 36 1008.8
20260505173911 55 90 6.1 14.8 0.00 0.00 0.00 39 1008.9
20260505173404 55 271 6.1 15.6 0.00 0.00 0.00 40 1008.8
20260505172353 55 319 6.1 13.9 0.00 0.00 0.00 38 1008.8
20260505171846 55 307 6.1 13.9 0.00 0.00 0.00 38 1008.6
20260505171342 55 309 5.2 13.9 0.00 0.00 0.00 40 1008.7
20260505170324 55 63 7.8 18.2 0.00 0.00 0.00 42 1008.7
20260505165313 55 320 6.1 16.5 0.00 0.00 0.00 42 1008.6
20260505164807 54 326 6.1 13.9 0.00 0.00 0.00 43 1008.5
20260505164300 54 333 5.2 13.9 0.00 0.00 0.00 43 1008.6
20260505163755 54 317 4.3 11.3 0.00 0.00 0.00 46 1008.8
20260505162754 53 297 7.0 15.6 0.00 0.00 0.00 44 1008.9
20260505162255 53 264 5.2 11.3 0.00 0.00 0.00 46 1008.9
20260505161753 53 302 4.3 11.3 0.00 0.00 0.00 44 1008.8
20260505161254 53 320 5.2 12.2 0.00 0.00 0.00 47 1008.8
20260505160753 52 277 6.1 12.2 0.00 0.00 0.00 46 1008.7
20260505160253 52 136 6.1 11.3 0.00 0.00 0.00 45 1008.7
20260505153254 52 44 5.2 13.9 0.00 0.00 0.00 46 1008.6
20260505152254 52 317 4.3 9.6 0.00 0.00 0.00 46 1008.5
20260505151754 52 337 5.2 10.4 0.00 0.00 0.00 44 1008.5
20260505151249 52 307 6.1 13.0 0.00 0.00 0.00 44 1008.3
20260505150747 51 298 7.0 13.0 0.00 0.00 0.00 44 1008.5
20260505150245 51 345 6.1 13.9 0.00 0.00 0.00 45 1008.3
20260505140246 49 23 3.5 7.8 0.00 0.00 0.00 58 1008.6
20260505124743 47 287 1.7 4.3 0.00 0.00 0.00 66 1008.7
20260505124244 47 297 1.7 4.3 0.00 0.00 0.00 67 1008.6
20260505123744 47 314 1.7 3.5 0.00 0.00 0.00 68 1008.5
20260505122744 47 314 1.7 3.5 0.00 0.00 0.00 68 1008.8
20260505122244 47 277 2.6 5.2 0.00 0.00 0.00 68 1008.5
20260505121743 47 303 2.6 5.2 0.00 0.00 0.00 68 1008.8
20260505121237 47 292 1.7 4.3 0.00 0.00 0.00 67 1008.8
20260505120732 47 298 0.9 3.5 0.00 0.00 0.00 68 1008.6
20260505120225 47 15 0.9 1.7 0.00 0.00 0.00 67 1008.7
20260505115213 47 331 0.9 4.3 0.00 0.00 0.00 67 1008.2
20260505114707 47 127 1.7 4.3 0.00 0.00 0.00 67 1008.1
20260505113656 47 314 1.7 4.3 0.00 0.00 0.00 67 1008.8
20260505112643 47 324 2.6 5.2 0.00 0.00 0.00 66 1007.9
20260505112138 48 15 2.6 5.2 0.00 0.00 0.00 66 1007.4
20260505111632 48 311 1.7 4.3 0.00 0.00 0.00 65 1007.2
20260505110115 48 340 2.6 7.0 0.00 0.00 0.00 64 1007.1
20260505102027 50 4 4.3 9.6 0.00 0.00 0.00 57 1007.2
20260505101521 50 250 3.5 9.6 0.00 0.00 0.00 57 1007.4
20260505101014 50 283 3.5 7.8 0.00 0.00 0.00 56 1007.4
20260505100507 50 289 3.5 7.8 0.00 0.00 0.00 56 1006.9
20260505094949 50 349 3.5 6.1 0.00 0.00 0.00 55 1005.8
20260505094444 50 351 3.5 8.7 0.00 0.00 0.00 55 1005.5
20260505093938 50 30 2.6 8.7 0.00 0.00 0.00 56 1005.5
20260505093432 50 314 2.6 7.0 0.00 0.00 0.00 56 1005.5
20260505092929 50 331 3.5 9.6 0.00 0.00 0.00 55 1005.7